Location: Rounton
(54.4000°N, 1.3500°W)
Time: 21:39:02
(UTC+01:00)

YAOGAN 20A - Pass Details

Date: 06 July 2022
Orbit: 891 x 1288 km, 63.4° (Epoch: 18 August)

Event Time Altitude Azimuth Distance (km) Brightness Sun altitude
Rises 23:30:37 0° 309° (NW) 3,788 9.2 -10.1°
Reaches altitude 10° 23:33:08 10° 310° (NW) 2,888 8.5 -10.2°
Maximum altitude 23:40:04 84° 39° (NE) 1,151 5.3 -10.6°
Drops below altitude 10° 23:47:42 10° 129° (SE) 3,163 7.1 -11.0°
Enters shadow 23:48:21 - 129° (SE) 3,388 7.2 -11.0°
